Coleman, TX

1:07 AM CDT on September 28, 2016 (GMT -0500)
Coleman Municipal

Weather History for KCOM - February, 2014

Change the Weather History Date:

Friday, February 14, 2014

  Actual Average (KABI) Record (KABI)
Temperature  
Mean Temperature 57 °F 48 °F  
Max Temperature 71 °F 60 °F 88 °F (1979)
Min Temperature 43 °F 36 °F 5 °F (1895)
Degree Days  
Heating Degree Days 8 17  
Month to date heating degree days 252  
Since 1 July heating degree days 1921  
Cooling Degree Days 0 0  
Month to date cooling degree days 0  
Year to date cooling degree days 1  
Growing Degree Days 7 (Base 50)    
Moisture  
Dew Point 28 °F    
Average Humidity 35    
Maximum Humidity 53    
Minimum Humidity 19    
Precipitation  
Precipitation 0.00 in 0.05 in 0.98 in (1917)
Month to date precipitation 0.65  
Year to date precipitation 1.67  
Sea Level Pressure  
Sea Level Pressure 29.95 in    
Wind  
Wind Speed 14 mph (NNW)    
Max Wind Speed 33 mph    
Max Gust Speed 43 mph    
Visibility 10 miles    
Events      
T = Trace of Precipitation, MM = Missing Value Source: NWS Daily Summary

Daily Weather History Graph

Daily Weather History Graph

Search for Another Location

Airport or City:

Trip Planner

Search our weather history database for the weather conditions in past years. The results will help you decide how hot, cold, wet, or windy it might be!

Date:

Astronomy

Feb. 14, 2014 Rise Set
Actual Time 7:20 AM CST 6:23 PM CST
Civil Twilight 6:55 AM CST 6:48 PM CST
Nautical Twilight 6:26 AM CST 7:17 PM CST
Astronomical Twilight 5:58 AM CST 7:45 PM CST
Moon 6:25 PM CST (2/14) 6:50 AM CST (2/14)
Length of Visible Light 11h 52m
Length of Day
11h 02m
Full, 100% of the Moon is Illuminated
Feb 14
Full
Feb 14
Full
Feb 22
Last Quarter
Mar 1
New
Mar 8
First Quarter

Hourly Weather History & Observations

Time (CST) Temp. Windchill Dew Point Humidity Pressure Visibility Wind Dir Wind Speed Gust Speed Precip Events Conditions
12:15 AM 50.0 °F - 31.5 °F 49% 29.87 in 10.0 mi SSW 11.5 mph - N/A   Clear
12:35 AM 50.0 °F - 30.9 °F 48% 29.86 in 10.0 mi SSW 9.2 mph - N/A   Clear
12:55 AM 50.9 °F - 30.9 °F 46% 29.85 in 10.0 mi SW 9.2 mph - N/A   Clear
1:15 AM 51.6 °F - 30.7 °F 45% 29.84 in 10.0 mi SW 11.5 mph - N/A   Clear
1:35 AM 49.3 °F - 30.7 °F 49% 29.84 in 10.0 mi SW 9.2 mph - N/A   Clear
1:55 AM 47.5 °F - 30.9 °F 53% 29.83 in 10.0 mi SW 8.1 mph - N/A   Clear
2:15 AM 47.7 °F - 31.1 °F 53% 29.83 in 10.0 mi SW 8.1 mph - N/A   Clear
2:35 AM 48.4 °F - 31.8 °F 53% 29.83 in 10.0 mi SSW 8.1 mph - N/A   Clear
2:55 AM 49.1 °F - 32.0 °F 52% 29.81 in 10.0 mi SSW 6.9 mph - N/A   Clear
3:15 AM 49.1 °F - 32.0 °F 52% 29.81 in 10.0 mi SSW 5.8 mph - N/A   Clear
3:35 AM 49.1 °F - 32.2 °F 52% 29.80 in 10.0 mi WSW 12.7 mph - N/A   Clear
3:55 AM 54.0 °F - 32.4 °F 44% 29.80 in 10.0 mi WSW 17.3 mph 25.3 mph N/A   Clear
4:15 AM 54.3 °F - 32.4 °F 43% 29.80 in 10.0 mi WSW 17.3 mph 28.8 mph N/A   Clear
4:35 AM 52.9 °F - 32.2 °F 45% 29.79 in 10.0 mi WSW 13.8 mph 19.6 mph N/A   Clear
4:55 AM 52.3 °F - 32.4 °F 47% 29.79 in 10.0 mi WSW 13.8 mph - N/A   Clear
5:15 AM 50.4 °F - 32.2 °F 50% 29.78 in 10.0 mi West 9.2 mph - N/A   Clear
5:35 AM 50.9 °F - 32.4 °F 49% 29.78 in 10.0 mi WSW 12.7 mph 19.6 mph N/A   Clear
5:55 AM 50.9 °F - 32.5 °F 49% 29.79 in 10.0 mi West 12.7 mph 17.3 mph N/A   Clear
6:15 AM 52.5 °F - 33.1 °F 48% 29.79 in 10.0 mi West 16.1 mph 23.0 mph N/A   Clear
6:35 AM 52.2 °F - 32.9 °F 48% 29.80 in 10.0 mi West 16.1 mph 23.0 mph N/A   Clear
6:55 AM 54.0 °F - 33.1 °F 45% 29.80 in 10.0 mi West 18.4 mph 28.8 mph N/A   Clear
7:15 AM 54.0 °F - 33.4 °F 46% 29.81 in 10.0 mi West 17.3 mph 25.3 mph N/A   Clear
7:35 AM 52.9 °F - 33.4 °F 48% 29.83 in 10.0 mi West 13.8 mph 23.0 mph N/A   Clear
7:55 AM 52.9 °F - 33.8 °F 48% 29.83 in 10.0 mi West 13.8 mph - N/A   Clear
8:15 AM 54.3 °F - 33.4 °F 45% 29.84 in 10.0 mi West 15.0 mph - N/A   Clear
8:35 AM 57.0 °F - 32.7 °F 40% 29.85 in 10.0 mi West 13.8 mph - N/A   Clear
8:55 AM 59.0 °F - 32.0 °F 36% 29.87 in 10.0 mi West 16.1 mph - N/A   Clear
9:15 AM 61.9 °F - 31.3 °F 32% 29.87 in 10.0 mi WNW 10.4 mph - N/A   Clear
9:35 AM 65.7 °F - 28.4 °F 25% 29.89 in 10.0 mi NW 18.4 mph 25.3 mph N/A   Clear
9:55 AM 66.9 °F - 28.9 °F 24% 29.90 in 10.0 mi NNW 21.9 mph 25.3 mph N/A   Clear
10:15 AM 68.2 °F - 28.4 °F 23% 29.92 in 10.0 mi North 26.5 mph 31.1 mph N/A   Clear
10:35 AM 67.5 °F - 29.1 °F 24% 29.93 in 10.0 mi NNW 26.5 mph 32.2 mph N/A   Clear
10:55 AM 68.9 °F - 29.8 °F 23% 29.95 in 10.0 mi North 26.5 mph 34.5 mph N/A   Clear
11:15 AM 68.9 °F - 28.8 °F 22% 29.95 in 10.0 mi North 25.3 mph 32.2 mph N/A   Clear
11:35 AM 70.3 °F - 27.1 °F 20% 29.96 in 10.0 mi North 28.8 mph 34.5 mph N/A   Clear
11:55 AM 71.2 °F - 26.6 °F 19% 29.97 in 10.0 mi North 29.9 mph 38.0 mph N/A   Clear
12:15 PM 70.9 °F - 27.5 °F 20% 29.97 in 10.0 mi North 28.8 mph 41.4 mph N/A   Clear
12:35 PM 70.7 °F - 28.0 °F 20% 29.99 in 10.0 mi NNE 32.2 mph 39.1 mph N/A   Clear
12:55 PM 70.5 °F - 28.6 °F 21% 29.99 in 10.0 mi NNE 27.6 mph 39.1 mph N/A   Clear
1:15 PM 70.2 °F - 27.3 °F 20% 29.99 in 10.0 mi NNE 33.4 mph 42.6 mph N/A   Clear
1:35 PM 70.3 °F - 28.0 °F 21% 29.98 in 10.0 mi NNE 27.6 mph 35.7 mph N/A   Clear
1:55 PM 69.8 °F - 27.5 °F 21% 29.99 in 10.0 mi NNE 26.5 mph 38.0 mph N/A   Clear
2:15 PM 69.6 °F - 27.5 °F 21% 29.98 in 10.0 mi NNE 31.1 mph 35.7 mph N/A   Clear
2:35 PM 69.3 °F - 25.9 °F 20% 29.98 in 10.0 mi NNE 27.6 mph 38.0 mph N/A   Clear
2:55 PM 69.4 °F - 25.9 °F 20% 29.98 in 10.0 mi NNE 27.6 mph 32.2 mph N/A   Clear
3:15 PM 69.8 °F - 26.2 °F 20% 29.99 in 10.0 mi NE 27.6 mph 33.4 mph N/A   Clear
3:35 PM 69.4 °F - 25.7 °F 19% 29.98 in 10.0 mi NE 26.5 mph 33.4 mph N/A   Clear
3:55 PM 66.9 °F - 25.0 °F 21% 29.99 in 10.0 mi NNE 21.9 mph 32.2 mph N/A   Clear
4:15 PM 67.1 °F - 24.4 °F 20% 30.02 in 10.0 mi NNE 18.4 mph - N/A   Clear
4:35 PM 65.8 °F - 24.8 °F 21% 30.03 in 10.0 mi NNE 17.3 mph - N/A   Clear
4:55 PM 65.3 °F - 25.0 °F 22% 30.04 in 10.0 mi NE 15.0 mph 19.6 mph N/A   Clear
5:15 PM 65.5 °F - 23.9 °F 21% 30.05 in 10.0 mi NNE 17.3 mph - N/A   Clear
5:35 PM 64.4 °F - 23.2 °F 21% 30.06 in 10.0 mi NE 15.0 mph 19.6 mph N/A   Clear
5:55 PM 63.5 °F - 22.3 °F 21% 30.06 in 10.0 mi NNE 13.8 mph - N/A   Clear
6:15 PM 61.3 °F - 22.6 °F 23% 30.07 in 10.0 mi NNE 12.7 mph - N/A   Clear
6:35 PM 58.1 °F - 22.8 °F 26% 30.07 in 10.0 mi NNE 9.2 mph - N/A   Clear
6:55 PM 54.7 °F - 23.4 °F 30% 30.08 in 10.0 mi NNE 9.2 mph - N/A   Clear
7:15 PM 54.0 °F - 23.0 °F 30% 30.08 in 10.0 mi NNE 5.8 mph - N/A   Clear
7:35 PM 54.5 °F - 23.0 °F 29% 30.08 in 10.0 mi North 4.6 mph - N/A   Clear
7:55 PM 51.4 °F - 23.0 °F 33% 30.09 in 10.0 mi North 5.8 mph - N/A   Clear
8:15 PM 50.2 °F - 23.4 °F 35% 30.09 in 10.0 mi Calm Calm - N/A   Clear
8:35 PM 51.3 °F - 23.0 °F 33% 30.10 in 10.0 mi North 4.6 mph - N/A   Clear
8:55 PM 51.3 °F - 23.0 °F 33% 30.11 in 10.0 mi North 4.6 mph - N/A   Clear
9:15 PM 50.0 °F - 23.2 °F 35% 30.11 in 10.0 mi North 4.6 mph - N/A   Clear
9:35 PM 47.5 °F - 24.3 °F 40% 30.11 in 10.0 mi North 3.5 mph - N/A   Clear
9:55 PM 47.5 °F - 23.9 °F 40% 30.10 in 10.0 mi NE 3.5 mph - N/A   Clear
10:15 PM 46.6 °F - 24.4 °F 42% 30.11 in 10.0 mi Calm Calm - N/A   Clear
10:35 PM 44.8 °F 43.3 °F 25.3 °F 47% 30.10 in 10.0 mi WSW 3.5 mph - N/A   Clear
10:55 PM 46.9 °F - 24.1 °F 41% 30.09 in 10.0 mi Calm Calm - N/A   Clear
11:15 PM 46.4 °F 45.2 °F 24.8 °F 43% 30.09 in 10.0 mi North 3.5 mph - N/A   Clear
11:35 PM 43.3 °F - 24.6 °F 48% 30.09 in 10.0 mi Calm Calm - N/A   Clear
11:55 PM 44.2 °F - 24.1 °F 45% 30.10 in 10.0 mi Calm Calm - N/A   Clear